Location: Kellogg
(38.0159°N, 90.0546°W)
Time: 18:34:13
(UTC+00:00)

S-56A Canister/Altair - Pass Details

Date: 15 September 2024
Orbit: 636 x 2487 km, 38.9° (Epoch: 04 October)

Event Time Altitude Azimuth Distance (km) Brightness Sun altitude
Rises 01:51:41 0° 262° (W) 3,371 11.9 -20.6°
Reaches altitude 10° 01:53:48 10° 262° (W) 2,592 11.1 -21.0°
Maximum altitude 02:00:01 88° 350° (N) 1,186 8.3 -22.1°
Enters shadow 02:04:44 31° 81° (E) 2,271 9.4 -22.9°
Drops below altitude 10° 02:09:39 10° 83° (E) 3,904 - -23.8°
Sets 02:13:33 0° 84° (E) 5,189 - -24.5°
